Time,TemperatureF,DewpointF,PressureIn,WindDirection,WindDirectionDegrees,WindSpeedMPH,WindSpeedGustMPH,Humidity,HourlyPrecipIn,Conditions,Clouds,dailyrainin,SoftwareType,DateUTC
2013-02-22 00:00:00,26.3,22.4,30.09,East,84,6.0,18.0,85,0.00,,OVC150,0.00,VWS V14.01,2013-02-22 06:00:00,
2013-02-22 00:02:00,26.3,22.1,30.09,East,89,17.0,20.0,84,0.00,,-RA,0.00,VWS V14.01,2013-02-22 06:02:00,
2013-02-22 00:05:00,26.2,22.3,30.08,East,96,10.0,20.0,85,0.00,,OVC150,0.00,VWS V14.01,2013-02-22 06:05:00,
2013-02-22 00:07:00,26.3,22.4,30.09,ESE,109,7.0,21.0,85,0.00,,-RA,0.00,VWS V14.01,2013-02-22 06:07:00,
2013-02-22 00:10:00,26.3,22.4,30.08,East,93,13.0,19.0,85,0.00,,OVC150,0.00,VWS V14.01,2013-02-22 06:10:00,
2013-02-22 00:12:00,26.2,22.3,30.08,East,98,18.0,24.0,85,0.00,,-RA,0.00,VWS V14.01,2013-02-22 06:12:00,
2013-02-22 00:15:00,26.2,22.3,30.08,ESE,109,14.0,24.0,85,0.00,,OVC150,0.00,VWS V14.01,2013-02-22 06:15:00,
2013-02-22 00:17:00,26.2,22.3,30.08,East,88,17.0,18.0,85,0.00,,-RA,0.00,VWS V14.01,2013-02-22 06:17:00,
2013-02-22 00:20:00,26.3,22.7,30.08,ESE,108,10.0,21.0,86,0.00,,OVC150,0.00,VWS V14.01,2013-02-22 06:20:00,
2013-02-22 00:22:00,26.1,22.5,30.08,East,89,17.0,22.0,86,0.00,,-RA,0.00,VWS V14.01,2013-02-22 06:22:00,
2013-02-22 00:25:00,26.2,22.6,30.07,East,92,9.0,22.0,86,0.00,,OVC150,0.00,VWS V14.01,2013-02-22 06:25:00,
2013-02-22 00:28:00,26.2,22.9,30.07,East,100,17.0,19.0,87,0.00,,-RA,0.00,VWS V14.01,2013-02-22 06:28:00,
2013-02-22 00:30:00,26.2,22.6,30.07,East,96,17.0,20.0,86,0.00,,OVC150,0.00,VWS V14.01,2013-02-22 06:30:00,
2013-02-22 00:33:00,26.1,22.5,30.07,East,90,14.0,22.0,86,0.00,,-RA,0.00,VWS V14.01,2013-02-22 06:33:00,
2013-02-22 00:35:00,26.2,22.6,30.07,East,94,15.0,24.0,86,0.00,,OVC150,0.00,VWS V14.01,2013-02-22 06:35:00,
2013-02-22 00:38:00,26.3,22.7,30.07,ESE,104,10.0,23.0,86,0.00,,-RA,0.00,VWS V14.01,2013-02-22 06:38:00,
2013-02-22 00:40:00,26.4,22.8,30.07,East,99,9.0,17.0,86,0.00,,OVC150,0.00,VWS V14.01,2013-02-22 06:40:00,
2013-02-22 00:43:00,26.3,22.4,30.07,ESE,119,14.0,23.0,85,0.00,,-RA,0.00,VWS V14.01,2013-02-22 06:43:00,
2013-02-22 00:45:00,26.3,22.4,30.07,ESE,107,8.0,23.0,85,0.00,,OVC150,0.00,VWS V14.01,2013-02-22 06:45:00,
2013-02-22 00:48:00,26.3,22.4,30.07,ENE,67,5.0,22.0,85,0.00,,-RA,0.00,VWS V14.01,2013-02-22 06:48:00,
2013-02-22 00:50:00,26.3,22.4,30.07,East,83,11.0,22.0,85,0.00,,OVC150,0.00,VWS V14.01,2013-02-22 06:50:00,
2013-02-22 00:53:00,26.3,22.4,30.07,ESE,104,11.0,19.0,85,0.00,,-RA,0.00,VWS V14.01,2013-02-22 06:53:00,
2013-02-22 00:55:00,26.3,22.4,30.06,East,79,11.0,19.0,85,0.00,,OVC150,0.00,VWS V14.01,2013-02-22 06:55:00,
2013-02-22 00:58:00,26.4,22.5,30.06,East,98,20.0,22.0,85,0.00,,-RA,0.00,VWS V14.01,2013-02-22 06:58:00,
2013-02-22 01:00:00,26.4,22.5,30.06,East,92,18.0,22.0,85,0.00,,OVC150,0.00,VWS V14.01,2013-02-22 07:00:00,
2013-02-22 01:03:00,26.4,22.5,30.06,East,86,14.0,25.0,85,0.00,,-RA,0.00,VWS V14.01,2013-02-22 07:03:00,
2013-02-22 01:05:00,26.4,22.5,30.06,ESE,102,18.0,25.0,85,0.00,,OVC150,0.00,VWS V14.01,2013-02-22 07:05:00,
2013-02-22 01:08:00,26.4,22.8,30.06,East,97,11.0,24.0,86,0.00,,-RA,0.00,VWS V14.01,2013-02-22 07:08:00,
2013-02-22 01:10:00,26.4,22.8,30.05,ESE,111,9.0,22.0,86,0.00,,OVC150,0.00,VWS V14.01,2013-02-22 07:10:00,
2013-02-22 01:13:00,26.4,22.8,30.05,East,88,10.0,20.0,86,0.00,,-RA,0.00,VWS V14.01,2013-02-22 07:13:00,
2013-02-22 01:15:00,26.4,22.8,30.05,East,96,10.0,21.0,86,0.00,,OVC150,0.00,VWS V14.01,2013-02-22 07:15:00,
2013-02-22 01:18:00,26.6,23.0,30.05,ESE,103,15.0,24.0,86,0.00,,-RA,0.00,VWS V14.01,2013-02-22 07:18:00,
2013-02-22 01:20:00,26.6,22.7,30.05,East,96,13.0,24.0,85,0.00,,OVC150,0.00,VWS V14.01,2013-02-22 07:20:00,
2013-02-22 01:23:00,26.4,22.5,30.04,East,88,13.0,26.0,85,0.00,,-RA,0.00,VWS V14.01,2013-02-22 07:23:00,
2013-02-22 01:25:00,26.4,22.5,30.04,East,96,11.0,26.0,85,0.00,,OVC150,0.00,VWS V14.01,2013-02-22 07:25:00,
2013-02-22 01:28:00,25.8,22.7,30.04,East,86,16.0,22.0,88,0.00,,-RA,0.00,VWS V14.01,2013-02-22 07:28:00,
2013-02-22 01:30:00,25.8,22.7,30.04,ESE,103,16.0,22.0,88,0.00,,OVC150,0.00,VWS V14.01,2013-02-22 07:30:00,
2013-02-22 01:33:00,25.4,23.1,30.03,East,89,22.0,26.0,91,0.00,,-RA,0.00,VWS V14.01,2013-02-22 07:33:00,
2013-02-22 01:35:00,25.4,23.1,30.03,ESE,106,14.0,26.0,91,0.00,,OVC150,0.00,VWS V14.01,2013-02-22 07:35:00,
2013-02-22 01:39:00,25.3,23.3,30.03,ESE,104,17.0,19.0,92,0.00,,-RA,0.00,VWS V14.01,2013-02-22 07:39:00,
2013-02-22 01:40:00,25.3,23.3,30.03,East,100,13.0,25.0,92,0.00,,OVC150,0.00,VWS V14.01,2013-02-22 07:40:00,
2013-02-22 01:44:00,25.3,23.6,30.02,East,90,14.0,24.0,93,0.00,,-RA,0.00,VWS V14.01,2013-02-22 07:44:00,
2013-02-22 01:45:00,25.3,23.6,30.02,East,91,22.0,22.0,93,0.00,,OVC150,0.00,VWS V14.01,2013-02-22 07:45:00,
2013-02-22 01:49:00,25.2,23.5,30.01,East,86,17.0,26.0,93,0.00,,-RA,0.00,VWS V14.01,2013-02-22 07:49:00,
2013-02-22 01:50:00,25.2,23.5,30.01,ENE,69,23.0,27.0,93,0.00,,OVC150,0.00,VWS V14.01,2013-02-22 07:50:00,
2013-02-22 01:54:00,25.3,23.8,30.00,NE,53,10.0,31.0,94,0.00,,-RA,0.00,VWS V14.01,2013-02-22 07:54:00,
2013-02-22 01:55:00,25.3,23.8,30.00,ENE,76,16.0,31.0,94,0.00,,OVC150,0.00,VWS V14.01,2013-02-22 07:55:00,
2013-02-22 01:59:00,25.2,23.7,30.00,North,360,20.0,25.0,94,0.00,,-RA,0.00,VWS V14.01,2013-02-22 07:59:00,
2013-02-22 02:00:00,25.2,23.7,30.00,East,89,18.0,25.0,94,0.00,,OVC150,0.00,VWS V14.01,2013-02-22 08:00:00,
2013-02-22 02:04:00,25.2,23.7,30.00,East,93,19.0,25.0,94,0.00,,-RA,0.00,VWS V14.01,2013-02-22 08:04:00,
2013-02-22 02:05:00,25.2,23.7,30.00,East,89,24.0,25.0,94,0.00,,OVC150,0.00,VWS V14.01,2013-02-22 08:05:00,
2013-02-22 02:09:00,25.3,23.8,30.00,East,93,18.0,26.0,94,0.00,,-RA,0.00,VWS V14.01,2013-02-22 08:09:00,
2013-02-22 02:10:00,25.3,23.8,30.00,NE,53,11.0,26.0,94,0.00,,OVC150,0.00,VWS V14.01,2013-02-22 08:10:00,
2013-02-22 02:14:00,25.3,23.8,29.99,ENE,74,23.0,27.0,94,0.00,,-RA,0.00,VWS V14.01,2013-02-22 08:14:00,
2013-02-22 02:15:00,25.3,23.8,29.99,ENE,70,26.0,27.0,94,0.00,,OVC150,0.00,VWS V14.01,2013-02-22 08:15:00,
2013-02-22 02:19:00,25.1,23.6,29.99,East,92,13.0,24.0,94,0.00,,-RA,0.00,VWS V14.01,2013-02-22 08:19:00,
2013-02-22 02:20:00,25.1,23.6,29.99,East,94,19.0,24.0,94,0.00,,OVC150,0.00,VWS V14.01,2013-02-22 08:20:00,
2013-02-22 02:24:00,25.1,23.6,29.98,East,89,23.0,27.0,94,0.00,,-RA,0.00,VWS V14.01,2013-02-22 08:24:00,
2013-02-22 02:25:00,25.1,23.6,29.98,East,89,23.0,27.0,94,0.00,,OVC150,0.00,VWS V14.01,2013-02-22 08:25:00,
2013-02-22 02:29:00,25.2,23.7,29.97,ENE,67,24.0,26.0,94,0.00,,-RA,0.00,VWS V14.01,2013-02-22 08:29:00,
2013-02-22 02:30:00,25.2,23.7,29.97,ENE,67,24.0,26.0,94,0.00,,OVC150,0.00,VWS V14.01,2013-02-22 08:30:00,
2013-02-22 02:34:00,25.0,23.5,29.97,NE,53,16.0,28.0,94,0.00,,-RA,0.00,VWS V14.01,2013-02-22 08:34:00,
2013-02-22 02:35:00,25.0,23.5,29.97,NE,53,16.0,28.0,94,0.00,,OVC150,0.00,VWS V14.01,2013-02-22 08:35:00,
2013-02-22 02:39:00,25.0,23.5,29.97,NE,43,17.0,26.0,94,0.00,,-RA,0.00,VWS V14.01,2013-02-22 08:39:00,
2013-02-22 02:40:00,25.0,23.5,29.97,NE,43,17.0,26.0,94,0.00,,OVC150,0.00,VWS V14.01,2013-02-22 08:40:00,
2013-02-22 02:44:00,24.8,23.3,29.97,ENE,77,22.0,25.0,94,0.00,,-RA,0.00,VWS V14.01,2013-02-22 08:44:00,
2013-02-22 02:45:00,24.8,23.3,29.97,ENE,77,22.0,25.0,94,0.00,,OVC150,0.00,VWS V14.01,2013-02-22 08:45:00,
2013-02-22 02:49:00,25.1,23.6,29.96,ENE,71,15.0,23.0,94,0.00,,-RA,0.00,VWS V14.01,2013-02-22 08:49:00,
2013-02-22 02:50:00,25.1,23.6,29.96,ENE,71,15.0,23.0,94,0.00,,OVC150,0.00,VWS V14.01,2013-02-22 08:50:00,
2013-02-22 02:54:00,25.0,23.8,29.96,East,101,13.0,27.0,95,0.00,,-RA,0.00,VWS V14.01,2013-02-22 08:54:00,
2013-02-22 02:55:00,25.0,23.8,29.96,East,101,13.0,27.0,95,0.00,,OVC150,0.00,VWS V14.01,2013-02-22 08:55:00,
2013-02-22 02:59:00,25.1,23.9,29.95,NE,34,13.0,26.0,95,0.00,,-RA,0.00,VWS V14.01,2013-02-22 08:59:00,
2013-02-22 03:00:00,25.1,23.9,29.95,NE,34,13.0,26.0,95,0.00,,OVC150,0.00,VWS V14.01,2013-02-22 09:00:00,
2013-02-22 03:05:00,25.4,24.2,29.96,East,89,16.0,23.0,95,0.00,,-RA,0.00,VWS V14.01,2013-02-22 09:05:00,
2013-02-22 03:10:00,25.2,24.0,29.95,NE,43,15.0,26.0,95,0.00,,-RA,0.00,VWS V14.01,2013-02-22 09:10:00,
2013-02-22 03:15:00,25.2,24.0,29.95,East,101,19.0,26.0,95,0.00,,-RA,0.00,VWS V14.01,2013-02-22 09:15:00,
2013-02-22 03:20:00,25.5,24.3,29.95,East,84,20.0,26.0,95,0.00,,-RA,0.00,VWS V14.01,2013-02-22 09:20:00,
2013-02-22 03:25:00,25.4,24.2,29.95,East,89,21.0,25.0,95,0.00,,-RA,0.00,VWS V14.01,2013-02-22 09:25:00,
2013-02-22 03:30:00,25.4,24.2,29.95,East,80,15.0,25.0,95,0.00,,-RA,0.00,VWS V14.01,2013-02-22 09:30:00,
2013-02-22 03:35:00,25.3,24.1,29.95,ENE,76,12.0,23.0,95,0.00,,-RA,0.00,VWS V14.01,2013-02-22 09:35:00,
2013-02-22 03:40:00,25.3,24.1,29.94,East,88,25.0,26.0,95,0.00,,-RA,0.00,VWS V14.01,2013-02-22 09:40:00,
2013-02-22 03:45:00,25.2,24.0,29.93,East,90,19.0,24.0,95,0.00,,-RA,0.00,VWS V14.01,2013-02-22 09:45:00,
2013-02-22 03:50:00,25.3,24.1,29.93,ENE,78,15.0,22.0,95,0.00,,-RA,0.00,VWS V14.01,2013-02-22 09:50:00,
2013-02-22 03:55:00,25.5,24.3,29.93,East,81,17.0,23.0,95,0.00,,-RA,0.00,VWS V14.01,2013-02-22 09:55:00,
2013-02-22 04:00:00,25.6,24.4,29.93,East,88,18.0,23.0,95,0.00,,-RA,0.00,VWS V14.01,2013-02-22 10:00:00,
2013-02-22 04:05:00,25.5,24.3,29.93,ENE,78,17.0,25.0,95,0.00,,-RA,0.00,VWS V14.01,2013-02-22 10:05:00,
2013-02-22 04:10:00,25.8,24.6,29.93,East,82,17.0,25.0,95,0.00,,OVC150,0.00,VWS V14.01,2013-02-22 10:10:00,
2013-02-22 04:11:00,25.9,24.7,29.93,East,90,14.0,25.0,95,0.00,,-RA,0.00,VWS V14.01,2013-02-22 10:11:00,
2013-02-22 04:15:00,25.7,24.5,29.93,East,86,21.0,25.0,95,0.00,,OVC150,0.00,VWS V14.01,2013-02-22 10:15:00,
2013-02-22 04:16:00,25.7,24.5,29.93,East,87,23.0,25.0,95,0.00,,-RA,0.00,VWS V14.01,2013-02-22 10:16:00,
2013-02-22 04:20:00,25.8,24.6,29.93,East,90,18.0,25.0,95,0.00,,OVC150,0.00,VWS V14.01,2013-02-22 10:20:00,
2013-02-22 04:21:00,25.8,24.6,29.92,ENE,77,14.0,26.0,95,0.00,,-RA,0.00,VWS V14.01,2013-02-22 10:21:00,
2013-02-22 04:25:00,26.0,24.8,29.92,ENE,73,18.0,27.0,95,0.00,,OVC150,0.00,VWS V14.01,2013-02-22 10:25:00,
2013-02-22 04:26:00,26.0,24.8,29.92,East,80,19.0,27.0,95,0.00,,-RA,0.00,VWS V14.01,2013-02-22 10:26:00,
2013-02-22 04:30:00,25.8,24.6,29.92,ESE,105,15.0,27.0,95,0.00,,OVC150,0.00,VWS V14.01,2013-02-22 10:30:00,
2013-02-22 04:31:00,25.9,24.7,29.92,East,96,25.0,27.0,95,0.00,,-RA,0.00,VWS V14.01,2013-02-22 10:31:00,
2013-02-22 04:35:00,26.0,24.8,29.92,East,93,13.0,25.0,95,0.00,,OVC150,0.00,VWS V14.01,2013-02-22 10:35:00,
2013-02-22 04:36:00,26.1,24.9,29.92,East,96,9.0,25.0,95,0.00,,-RA,0.00,VWS V14.01,2013-02-22 10:36:00,
2013-02-22 04:40:00,26.2,25.0,29.92,East,80,9.0,21.0,95,0.00,,OVC150,0.00,VWS V14.01,2013-02-22 10:40:00,
2013-02-22 04:41:00,26.3,25.1,29.92,East,94,15.0,22.0,95,0.00,,-RA,0.00,VWS V14.01,2013-02-22 10:41:00,
2013-02-22 04:45:00,26.1,24.9,29.92,East,88,16.0,22.0,95,0.00,,OVC150,0.00,VWS V14.01,2013-02-22 10:45:00,
2013-02-22 04:46:00,26.1,24.9,29.92,East,95,13.0,18.0,95,0.00,,-RA,0.00,VWS V14.01,2013-02-22 10:46:00,
2013-02-22 04:50:00,26.1,24.9,29.92,ESE,112,10.0,22.0,95,0.00,,OVC150,0.00,VWS V14.01,2013-02-22 10:50:00,
2013-02-22 04:51:00,26.2,25.0,29.92,East,90,21.0,22.0,95,0.00,,-RA,0.00,VWS V14.01,2013-02-22 10:51:00,
2013-02-22 04:55:00,26.3,25.1,29.92,SE,128,12.0,22.0,95,0.00,,OVC150,0.00,VWS V14.01,2013-02-22 10:55:00,
2013-02-22 04:56:00,26.3,25.3,29.92,East,96,7.0,18.0,96,0.00,,-RA,0.00,VWS V14.01,2013-02-22 10:56:00,
2013-02-22 05:00:00,26.3,25.1,29.92,ESE,113,14.0,18.0,95,0.00,,OVC150,0.00,VWS V14.01,2013-02-22 11:00:00,
2013-02-22 05:01:00,26.5,25.5,29.92,East,82,20.0,20.0,96,0.00,,-RA,0.00,VWS V14.01,2013-02-22 11:01:00,
2013-02-22 05:05:00,26.5,25.5,29.92,East,93,15.0,22.0,96,0.00,,OVC150,0.00,VWS V14.01,2013-02-22 11:05:00,
2013-02-22 05:06:00,26.7,25.7,29.92,East,80,11.0,19.0,96,0.00,,-RA,0.00,VWS V14.01,2013-02-22 11:06:00,
2013-02-22 05:10:00,26.8,25.8,29.92,ESE,104,11.0,22.0,96,0.00,,OVC150,0.00,VWS V14.01,2013-02-22 11:10:00,
2013-02-22 05:11:00,26.8,25.8,29.91,ENE,78,9.0,22.0,96,0.00,,-RA,0.00,VWS V14.01,2013-02-22 11:11:00,
2013-02-22 05:15:00,26.7,25.7,29.91,ESE,103,17.0,18.0,96,0.00,,OVC150,0.00,VWS V14.01,2013-02-22 11:15:00,
2013-02-22 05:17:00,26.7,25.7,29.91,East,98,16.0,18.0,96,0.00,,-RA,0.00,VWS V14.01,2013-02-22 11:17:00,
2013-02-22 05:20:00,26.8,25.8,29.91,ESE,106,17.0,17.0,96,0.00,,OVC150,0.00,VWS V14.01,2013-02-22 11:20:00,
2013-02-22 05:22:00,26.9,25.9,29.90,East,88,11.0,18.0,96,0.00,,-RA,0.00,VWS V14.01,2013-02-22 11:22:00,
2013-02-22 05:25:00,27.0,26.0,29.90,SE,126,11.0,18.0,96,0.00,,OVC150,0.00,VWS V14.01,2013-02-22 11:25:00,
2013-02-22 05:27:00,27.1,26.1,29.90,SE,142,12.0,19.0,96,0.00,,-RA,0.00,VWS V14.01,2013-02-22 11:27:00,
2013-02-22 05:30:00,27.1,26.1,29.90,East,101,13.0,19.0,96,0.00,,OVC150,0.00,VWS V14.01,2013-02-22 11:30:00,
2013-02-22 05:32:00,27.1,26.1,29.90,East,84,13.0,16.0,96,0.00,,-RA,0.00,VWS V14.01,2013-02-22 11:32:00,
2013-02-22 05:35:00,27.2,26.2,29.89,East,84,3.0,16.0,96,0.00,,OVC150,0.00,VWS V14.01,2013-02-22 11:35:00,
2013-02-22 05:37:00,27.1,26.1,29.89,East,94,7.0,22.0,96,0.00,,-RA,0.00,VWS V14.01,2013-02-22 11:37:00,
2013-02-22 05:40:00,27.1,26.1,29.89,East,93,10.0,19.0,96,0.00,,OVC150,0.00,VWS V14.01,2013-02-22 11:40:00,
2013-02-22 05:42:00,27.1,26.1,29.89,SE,136,13.0,21.0,96,0.00,,-RA,0.00,VWS V14.01,2013-02-22 11:42:00,
2013-02-22 05:45:00,27.2,26.2,29.89,ESE,102,7.0,21.0,96,0.00,,OVC150,0.00,VWS V14.01,2013-02-22 11:45:00,
2013-02-22 05:47:00,27.2,26.2,29.89,ESE,115,3.0,17.0,96,0.00,,-RA,0.00,VWS V14.01,2013-02-22 11:47:00,
2013-02-22 05:50:00,27.2,26.2,29.89,ESE,105,13.0,21.0,96,0.00,,OVC150,0.00,VWS V14.01,2013-02-22 11:50:00,
2013-02-22 05:52:00,27.3,26.3,29.88,ESE,123,10.0,21.0,96,0.00,,-RA,0.00,VWS V14.01,2013-02-22 11:52:00,
2013-02-22 05:55:00,27.3,26.3,29.88,ESE,116,13.0,19.0,96,0.00,,OVC150,0.00,VWS V14.01,2013-02-22 11:55:00,
2013-02-22 05:57:00,27.2,26.2,29.88,East,100,11.0,20.0,96,0.00,,-RA,0.00,VWS V14.01,2013-02-22 11:57:00,
2013-02-22 06:00:00,27.2,26.2,29.88,SE,127,9.0,19.0,96,0.00,,OVC150,0.00,VWS V14.01,2013-02-22 12:00:00,
2013-02-22 06:02:00,27.1,26.1,29.88,SE,126,13.0,19.0,96,0.00,,-RA,0.00,VWS V14.01,2013-02-22 12:02:00,
2013-02-22 06:05:00,27.2,26.2,29.87,SE,130,15.0,18.0,96,0.00,,OVC150,0.00,VWS V14.01,2013-02-22 12:05:00,
2013-02-22 06:07:00,27.2,26.2,29.87,SE,124,4.0,18.0,96,0.00,,-RA,0.00,VWS V14.01,2013-02-22 12:07:00,
2013-02-22 06:10:00,27.0,26.0,29.87,ESE,121,10.0,18.0,96,0.00,,OVC150,0.00,VWS V14.01,2013-02-22 12:10:00,
2013-02-22 06:12:00,27.1,26.1,29.87,ESE,111,10.0,19.0,96,0.00,,-RA,0.00,VWS V14.01,2013-02-22 12:12:00,
2013-02-22 06:15:00,27.2,26.2,29.87,East,95,3.0,19.0,96,0.00,,OVC150,0.00,VWS V14.01,2013-02-22 12:15:00,
2013-02-22 06:17:00,27.3,26.3,29.87,ESE,111,9.0,16.0,96,0.00,,-RA,0.00,VWS V14.01,2013-02-22 12:17:00,
2013-02-22 06:20:00,27.3,26.3,29.87,SE,136,9.0,19.0,96,0.00,,OVC150,0.00,VWS V14.01,2013-02-22 12:20:00,
2013-02-22 06:22:00,27.1,26.1,29.87,ESE,121,9.0,19.0,96,0.00,,-RA,0.00,VWS V14.01,2013-02-22 12:22:00,
2013-02-22 06:25:00,27.2,26.2,29.87,ESE,105,5.0,18.0,96,0.00,,OVC150,0.00,VWS V14.01,2013-02-22 12:25:00,
2013-02-22 06:27:00,27.2,26.2,29.87,ESE,123,5.0,18.0,96,0.00,,-RA,0.00,VWS V14.01,2013-02-22 12:27:00,
2013-02-22 06:30:00,27.2,26.2,29.87,ESE,117,9.0,18.0,96,0.00,,OVC150,0.00,VWS V14.01,2013-02-22 12:30:00,
2013-02-22 06:33:00,27.2,26.2,29.87,ENE,71,11.0,21.0,96,0.00,,-RA,0.00,VWS V14.01,2013-02-22 12:33:00,
2013-02-22 06:35:00,27.3,26.3,29.87,East,86,9.0,22.0,96,0.00,,OVC150,0.00,VWS V14.01,2013-02-22 12:35:00,
2013-02-22 06:38:00,27.4,26.4,29.87,East,100,9.0,19.0,96,0.00,,-RA,0.00,VWS V14.01,2013-02-22 12:38:00,
2013-02-22 06:40:00,27.4,26.4,29.86,SSE,155,13.0,19.0,96,0.00,,OVC150,0.00,VWS V14.01,2013-02-22 12:40:00,
2013-02-22 06:43:00,27.4,26.4,29.86,ESE,117,3.0,19.0,96,0.00,,-RA,0.00,VWS V14.01,2013-02-22 12:43:00,
2013-02-22 06:45:00,27.4,26.4,29.86,SE,128,3.0,19.0,96,0.00,,OVC150,0.00,VWS V14.01,2013-02-22 12:45:00,
2013-02-22 06:48:00,27.4,26.4,29.86,ESE,113,8.0,21.0,96,0.00,,-RA,0.00,VWS V14.01,2013-02-22 12:48:00,
2013-02-22 06:50:00,27.5,26.5,29.86,ESE,106,7.0,21.0,96,0.00,,OVC150,0.00,VWS V14.01,2013-02-22 12:50:00,
2013-02-22 06:53:00,27.7,26.7,29.86,SE,138,8.0,15.0,96,0.00,,-RA,0.00,VWS V14.01,2013-02-22 12:53:00,
2013-02-22 06:55:00,27.7,26.7,29.86,SE,140,9.0,15.0,96,0.00,,OVC150,0.00,VWS V14.01,2013-02-22 12:55:00,
2013-02-22 06:58:00,27.8,26.6,29.86,ESE,111,10.0,18.0,95,0.00,,-RA,0.00,VWS V14.01,2013-02-22 12:58:00,
2013-02-22 07:00:00,27.8,26.6,29.86,East,96,2.0,18.0,95,0.00,,OVC150,0.00,VWS V14.01,2013-02-22 13:00:00,
2013-02-22 07:03:00,27.9,26.7,29.85,SE,130,5.0,16.0,95,0.00,,-RA,0.00,VWS V14.01,2013-02-22 13:03:00,
2013-02-22 07:05:00,27.9,26.7,29.85,ESE,107,11.0,16.0,95,0.00,,OVC150,0.00,VWS V14.01,2013-02-22 13:05:00,
2013-02-22 07:08:00,28.1,27.1,29.85,SE,141,8.0,17.0,96,0.00,,-RA,0.00,VWS V14.01,2013-02-22 13:08:00,
2013-02-22 07:10:00,28.1,27.1,29.86,ESE,115,7.0,16.0,96,0.00,,OVC150,0.00,VWS V14.01,2013-02-22 13:10:00,
2013-02-22 07:13:00,28.1,27.1,29.86,ESE,123,15.0,21.0,96,0.00,,-RA,0.00,VWS V14.01,2013-02-22 13:13:00,
2013-02-22 07:15:00,28.1,27.1,29.86,SE,143,9.0,21.0,96,0.00,,OVC150,0.00,VWS V14.01,2013-02-22 13:15:00,
2013-02-22 07:18:00,28.2,27.0,29.85,ESE,117,18.0,18.0,95,0.00,,-RA,0.00,VWS V14.01,2013-02-22 13:18:00,
2013-02-22 07:20:00,28.2,27.0,29.85,ESE,123,13.0,18.0,95,0.00,,OVC150,0.00,VWS V14.01,2013-02-22 13:20:00,
2013-02-22 07:23:00,28.3,27.0,29.85,SE,137,8.0,19.0,95,0.00,,-RA,0.00,VWS V14.01,2013-02-22 13:23:00,
2013-02-22 07:25:00,28.3,27.0,29.85,SE,131,15.0,19.0,95,0.00,,OVC150,0.00,VWS V14.01,2013-02-22 13:25:00,
2013-02-22 07:28:00,28.5,27.2,29.85,ESE,122,14.0,19.0,95,0.00,,-RA,0.00,VWS V14.01,2013-02-22 13:28:00,
2013-02-22 07:30:00,28.5,27.2,29.85,SE,138,15.0,19.0,95,0.00,,OVC150,0.00,VWS V14.01,2013-02-22 13:30:00,
2013-02-22 07:33:00,28.6,27.4,29.85,ESE,117,14.0,17.0,95,0.00,,-RA,0.00,VWS V14.01,2013-02-22 13:33:00,
2013-02-22 07:35:00,28.6,27.4,29.85,ESE,119,14.0,19.0,95,0.00,,OVC150,0.00,VWS V14.01,2013-02-22 13:35:00,
2013-02-22 07:39:00,28.6,27.4,29.85,SE,127,6.0,22.0,95,0.00,,-RA,0.00,VWS V14.01,2013-02-22 13:39:00,
2013-02-22 07:40:00,28.6,27.4,29.85,SE,124,7.0,21.0,95,0.00,,OVC150,0.00,VWS V14.01,2013-02-22 13:40:00,
2013-02-22 07:44:00,28.7,27.5,29.84,SSE,155,4.0,16.0,95,0.00,,-RA,0.00,VWS V14.01,2013-02-22 13:44:00,
2013-02-22 07:45:00,28.7,27.5,29.84,ESE,117,5.0,17.0,95,0.00,,OVC150,0.00,VWS V14.01,2013-02-22 13:45:00,
2013-02-22 07:49:00,28.7,27.5,29.84,SE,128,17.0,17.0,95,0.00,,-RA,0.00,VWS V14.01,2013-02-22 13:49:00,
2013-02-22 07:50:00,28.7,27.5,29.84,ESE,120,3.0,17.0,95,0.00,,OVC150,0.00,VWS V14.01,2013-02-22 13:50:00,
2013-02-22 07:54:00,28.8,27.5,29.84,SSW,200,7.0,17.0,95,0.00,,-RA,0.00,VWS V14.01,2013-02-22 13:54:00,
2013-02-22 07:55:00,28.7,27.5,29.84,East,85,5.0,17.0,95,0.00,,OVC150,0.00,VWS V14.01,2013-02-22 13:55:00,
2013-02-22 07:59:00,28.7,27.5,29.84,ESE,119,15.0,19.0,95,0.00,,-RA,0.00,VWS V14.01,2013-02-22 13:59:00,
2013-02-22 08:00:00,28.7,27.5,29.84,SE,137,15.0,19.0,95,0.00,,OVC150,0.00,VWS V14.01,2013-02-22 14:00:00,
2013-02-22 08:04:00,28.7,27.5,29.84,SE,128,11.0,17.0,95,0.00,,-RA,0.00,VWS V14.01,2013-02-22 14:04:00,
2013-02-22 08:05:00,28.7,27.5,29.84,SE,136,7.0,17.0,95,0.00,,OVC150,0.00,VWS V14.01,2013-02-22 14:05:00,
2013-02-22 08:09:00,28.8,27.5,29.84,SSE,150,6.0,18.0,95,0.00,,-RA,0.00,VWS V14.01,2013-02-22 14:09:00,
2013-02-22 08:10:00,28.8,27.5,29.83,SE,135,6.0,18.0,95,0.00,,OVC150,0.00,VWS V14.01,2013-02-22 14:10:00,
2013-02-22 08:14:00,28.9,27.6,29.83,ESE,121,8.0,19.0,95,0.00,,-RA,0.00,VWS V14.01,2013-02-22 14:14:00,
2013-02-22 08:15:00,28.9,27.6,29.83,SE,129,9.0,19.0,95,0.00,,OVC150,0.00,VWS V14.01,2013-02-22 14:15:00,
2013-02-22 08:19:00,28.9,27.6,29.83,SSE,154,6.0,18.0,95,0.00,,-RA,0.00,VWS V14.01,2013-02-22 14:19:00,
2013-02-22 08:20:00,28.9,27.6,29.83,SSE,154,6.0,18.0,95,0.00,,OVC150,0.00,VWS V14.01,2013-02-22 14:20:00,
2013-02-22 08:24:00,29.0,27.8,29.83,SE,124,9.0,16.0,95,0.00,,-RA,0.00,VWS V14.01,2013-02-22 14:24:00,
2013-02-22 08:25:00,29.0,27.8,29.83,SE,124,9.0,16.0,95,0.00,,OVC150,0.00,VWS V14.01,2013-02-22 14:25:00,
2013-02-22 08:29:00,29.0,27.8,29.82,SE,138,10.0,15.0,95,0.00,,-RA,0.00,VWS V14.01,2013-02-22 14:29:00,
2013-02-22 08:30:00,29.0,27.8,29.82,SE,138,10.0,15.0,95,0.00,,OVC150,0.00,VWS V14.01,2013-02-22 14:30:00,
2013-02-22 08:34:00,29.2,28.0,29.82,SE,134,11.0,16.0,95,0.00,,-RA,0.00,VWS V14.01,2013-02-22 14:34:00,
2013-02-22 08:35:00,29.2,28.0,29.82,SE,134,11.0,16.0,95,0.00,,OVC150,0.00,VWS V14.01,2013-02-22 14:35:00,
2013-02-22 08:39:00,29.3,28.0,29.82,SSE,164,13.0,17.0,95,0.00,,-RA,0.00,VWS V14.01,2013-02-22 14:39:00,
2013-02-22 08:40:00,29.3,28.0,29.82,SSE,164,13.0,17.0,95,0.00,,OVC150,0.00,VWS V14.01,2013-02-22 14:40:00,
2013-02-22 08:44:00,29.4,27.9,29.82,ESE,118,4.0,15.0,94,0.00,,-RA,0.00,VWS V14.01,2013-02-22 14:44:00,
2013-02-22 08:45:00,29.4,27.9,29.82,ESE,118,4.0,15.0,94,0.00,,OVC150,0.00,VWS V14.01,2013-02-22 14:45:00,
2013-02-22 08:49:00,29.5,28.0,29.82,SSE,157,10.0,19.0,94,0.00,,-RA,0.00,VWS V14.01,2013-02-22 14:49:00,
2013-02-22 08:50:00,29.5,28.0,29.82,SSE,157,10.0,19.0,94,0.00,,OVC150,0.00,VWS V14.01,2013-02-22 14:50:00,
2013-02-22 08:54:00,29.5,28.2,29.82,SSW,198,4.0,18.0,95,0.00,,-RA,0.00,VWS V14.01,2013-02-22 14:54:00,
2013-02-22 08:55:00,29.5,28.2,29.82,SSW,198,4.0,18.0,95,0.00,,OVC150,0.00,VWS V14.01,2013-02-22 14:55:00,
2013-02-22 08:59:00,29.4,28.1,29.82,SE,134,2.0,14.0,95,0.00,,-RA,0.00,VWS V14.01,2013-02-22 14:59:00,
2013-02-22 09:00:00,29.4,28.1,29.82,SE,134,2.0,14.0,95,0.00,,OVC150,0.00,VWS V14.01,2013-02-22 15:00:00,
2013-02-22 09:05:00,29.5,28.2,29.82,SSE,148,10.0,16.0,95,0.00,,-RA,0.00,VWS V14.01,2013-02-22 15:05:00,
2013-02-22 09:10:00,29.6,28.4,29.81,SE,139,8.0,13.0,95,0.00,,-RA,0.00,VWS V14.01,2013-02-22 15:10:00,
2013-02-22 09:15:00,29.6,28.1,29.81,SE,143,5.0,13.0,94,0.00,,-RA,0.00,VWS V14.01,2013-02-22 15:15:00,
2013-02-22 09:20:00,29.6,28.4,29.81,ESE,119,4.0,15.0,95,0.00,,-RA,0.00,VWS V14.01,2013-02-22 15:20:00,
2013-02-22 09:25:00,29.5,28.2,29.81,ESE,117,7.0,12.0,95,0.00,,-RA,0.00,VWS V14.01,2013-02-22 15:25:00,
2013-02-22 09:30:00,29.5,28.0,29.81,South,178,10.0,13.0,94,0.00,,-RA,0.00,VWS V14.01,2013-02-22 15:30:00,
2013-02-22 09:35:00,29.6,28.4,29.81,SE,136,4.0,10.0,95,0.00,,-RA,0.00,VWS V14.01,2013-02-22 15:35:00,
2013-02-22 09:40:00,29.5,28.2,29.81,SSE,161,3.0,10.0,95,0.00,,-RA,0.00,VWS V14.01,2013-02-22 15:40:00,
2013-02-22 09:45:00,29.6,28.4,29.81,SSE,153,4.0,10.0,95,0.00,,OVC150,0.00,VWS V14.01,2013-02-22 15:45:00,
2013-02-22 09:46:00,29.6,28.4,29.81,SSE,150,3.0,11.0,95,0.00,,-RA,0.00,VWS V14.01,2013-02-22 15:46:00,
2013-02-22 09:50:00,29.6,28.4,29.81,SSE,147,8.0,12.0,95,0.00,,OVC150,0.00,VWS V14.01,2013-02-22 15:50:00,
2013-02-22 09:51:00,29.6,28.4,29.81,SSE,157,5.0,12.0,95,0.00,,-RA,0.00,VWS V14.01,2013-02-22 15:51:00,
2013-02-22 09:55:00,29.6,28.4,29.81,SE,140,7.0,11.0,95,0.00,,OVC150,0.00,VWS V14.01,2013-02-22 15:55:00,
2013-02-22 09:56:00,29.6,28.4,29.81,SSE,167,4.0,12.0,95,0.00,,-RA,0.00,VWS V14.01,2013-02-22 15:56:00,
2013-02-22 10:00:00,29.7,28.5,29.81,South,180,6.0,12.0,95,0.00,,OVC150,0.00,VWS V14.01,2013-02-22 16:00:00,
2013-02-22 10:01:00,29.7,28.5,29.82,SE,124,8.0,10.0,95,0.00,,-RA,0.00,VWS V14.01,2013-02-22 16:01:00,
2013-02-22 10:05:00,29.7,28.5,29.81,SE,138,7.0,11.0,95,0.00,,OVC150,0.00,VWS V14.01,2013-02-22 16:05:00,
2013-02-22 10:06:00,29.7,28.5,29.81,South,175,4.0,11.0,95,0.00,,-RA,0.00,VWS V14.01,2013-02-22 16:06:00,
2013-02-22 10:10:00,29.7,28.5,29.81,SSE,162,8.0,9.0,95,0.00,,OVC150,0.00,VWS V14.01,2013-02-22 16:10:00,
2013-02-22 10:11:00,29.7,28.5,29.81,SSE,155,3.0,10.0,95,0.00,,-RA,0.00,VWS V14.01,2013-02-22 16:11:00,
2013-02-22 10:15:00,29.7,28.5,29.81,South,184,5.0,10.0,95,0.00,,OVC150,0.00,VWS V14.01,2013-02-22 16:15:00,
2013-02-22 10:16:00,29.7,28.5,29.81,SSE,161,4.0,9.0,95,0.00,,-RA,0.00,VWS V14.01,2013-02-22 16:16:00,
2013-02-22 10:20:00,29.7,28.5,29.82,SSE,163,4.0,10.0,95,0.00,,OVC150,0.00,VWS V14.01,2013-02-22 16:20:00,
2013-02-22 10:21:00,29.7,28.5,29.81,SSE,153,8.0,10.0,95,0.00,,-RA,0.00,VWS V14.01,2013-02-22 16:21:00,
2013-02-22 10:25:00,29.7,28.5,29.81,South,178,3.0,11.0,95,0.00,,OVC150,0.00,VWS V14.01,2013-02-22 16:25:00,
2013-02-22 10:26:00,29.7,28.5,29.81,SE,144,8.0,11.0,95,0.00,,-RA,0.00,VWS V14.01,2013-02-22 16:26:00,
2013-02-22 10:30:00,29.6,28.4,29.81,South,180,9.0,11.0,95,0.00,,OVC150,0.00,VWS V14.01,2013-02-22 16:30:00,
2013-02-22 10:31:00,29.6,28.4,29.81,South,173,11.0,11.0,95,0.00,,-RA,0.00,VWS V14.01,2013-02-22 16:31:00,
2013-02-22 10:35:00,29.6,28.4,29.82,SSE,165,7.0,15.0,95,0.00,,OVC150,0.00,VWS V14.01,2013-02-22 16:35:00,
2013-02-22 10:36:00,29.6,28.4,29.81,South,188,11.0,16.0,95,0.00,,-RA,0.00,VWS V14.01,2013-02-22 16:36:00,
2013-02-22 10:40:00,29.5,28.2,29.81,SSE,153,5.0,13.0,95,0.00,,OVC150,0.00,VWS V14.01,2013-02-22 16:40:00,
2013-02-22 10:41:00,29.6,28.4,29.81,South,190,8.0,11.0,95,0.00,,-RA,0.00,VWS V14.01,2013-02-22 16:41:00,
2013-02-22 10:45:00,29.7,28.5,29.81,SSE,155,3.0,8.0,95,0.00,,OVC150,0.00,VWS V14.01,2013-02-22 16:45:00,
2013-02-22 10:47:00,29.6,28.4,29.81,SSE,155,4.0,9.0,95,0.00,,-RA,0.00,VWS V14.01,2013-02-22 16:47:00,
2013-02-22 10:50:00,29.6,28.4,29.81,SE,135,5.0,12.0,95,0.00,,OVC150,0.00,VWS V14.01,2013-02-22 16:50:00,
2013-02-22 10:52:00,29.6,28.4,29.82,SSE,147,3.0,9.0,95,0.00,,-RA,0.00,VWS V14.01,2013-02-22 16:52:00,
2013-02-22 10:55:00,29.6,28.4,29.81,South,178,8.0,10.0,95,0.00,,OVC150,0.00,VWS V14.01,2013-02-22 16:55:00,
2013-02-22 10:57:00,29.5,28.2,29.81,South,180,4.0,13.0,95,0.00,,-RA,0.00,VWS V14.01,2013-02-22 16:57:00,
2013-02-22 11:00:00,29.6,28.4,29.81,South,170,8.0,13.0,95,0.00,,OVC150,0.00,VWS V14.01,2013-02-22 17:00:00,
2013-02-22 11:02:00,29.6,28.4,29.81,SSE,159,3.0,9.0,95,0.00,,-RA,0.00,VWS V14.01,2013-02-22 17:02:00,
2013-02-22 11:05:00,29.6,28.4,29.81,SE,136,7.0,9.0,95,0.00,,OVC150,0.00,VWS V14.01,2013-02-22 17:05:00,
2013-02-22 11:07:00,29.6,28.4,29.81,SSE,147,4.0,9.0,95,0.00,,-RA,0.00,VWS V14.01,2013-02-22 17:07:00,
2013-02-22 11:10:00,29.6,28.4,29.81,SE,146,0.0,7.0,95,0.00,,OVC150,0.00,VWS V14.01,2013-02-22 17:10:00,
2013-02-22 11:12:00,29.7,28.5,29.81,ESE,122,2.0,5.0,95,0.00,,-RA,0.00,VWS V14.01,2013-02-22 17:12:00,
2013-02-22 11:15:00,29.7,28.5,29.81,South,169,3.0,6.0,95,0.00,,OVC150,0.00,VWS V14.01,2013-02-22 17:15:00,
2013-02-22 11:17:00,29.7,28.5,29.81,SE,131,4.0,6.0,95,0.00,,-RA,0.00,VWS V14.01,2013-02-22 17:17:00,
2013-02-22 11:20:00,29.7,28.5,29.81,South,175,6.0,8.0,95,0.00,,OVC150,0.00,VWS V14.01,2013-02-22 17:20:00,
2013-02-22 11:22:00,29.7,28.5,29.81,SE,132,0.0,10.0,95,0.00,,-RA,0.00,VWS V14.01,2013-02-22 17:22:00,
2013-02-22 11:25:00,29.7,28.5,29.81,South,184,1.0,10.0,95,0.00,,OVC150,0.00,VWS V14.01,2013-02-22 17:25:00,
2013-02-22 11:27:00,29.7,28.5,29.81,SSE,159,2.0,6.0,95,0.00,,-RA,0.00,VWS V14.01,2013-02-22 17:27:00,
2013-02-22 11:30:00,29.8,28.5,29.81,South,169,1.0,6.0,95,0.00,,OVC150,0.00,VWS V14.01,2013-02-22 17:30:00,
2013-02-22 11:32:00,29.8,28.5,29.81,SE,128,5.0,7.0,95,0.00,,-RA,0.00,VWS V14.01,2013-02-22 17:32:00,
2013-02-22 11:35:00,29.7,28.5,29.81,SE,143,0.0,7.0,95,0.00,,OVC150,0.00,VWS V14.01,2013-02-22 17:35:00,
2013-02-22 11:37:00,29.7,28.5,29.81,South,174,0.0,6.0,95,0.00,,-RA,0.00,VWS V14.01,2013-02-22 17:37:00,
2013-02-22 11:40:00,29.8,28.5,29.80,South,171,3.0,6.0,95,0.00,,OVC150,0.00,VWS V14.01,2013-02-22 17:40:00,
2013-02-22 11:42:00,29.8,28.5,29.80,South,175,0.0,6.0,95,0.00,,-RA,0.00,VWS V14.01,2013-02-22 17:42:00,
2013-02-22 11:45:00,29.8,28.5,29.81,South,175,0.0,6.0,95,0.00,,OVC150,0.00,VWS V14.01,2013-02-22 17:45:00,
2013-02-22 11:48:00,29.8,28.5,29.81,South,177,0.0,7.0,95,0.00,,-RA,0.00,VWS V14.01,2013-02-22 17:48:00,
2013-02-22 11:50:00,29.9,28.6,29.80,South,183,10.0,10.0,95,0.00,,OVC150,0.00,VWS V14.01,2013-02-22 17:50:00,
2013-02-22 11:53:00,29.8,28.5,29.80,South,184,3.0,10.0,95,0.00,,-RA,0.00,VWS V14.01,2013-02-22 17:53:00,
2013-02-22 11:55:00,29.8,28.5,29.80,South,183,2.0,7.0,95,0.00,,OVC150,0.00,VWS V14.01,2013-02-22 17:55:00,
2013-02-22 11:58:00,29.9,28.6,29.80,SSE,166,0.0,9.0,95,0.00,,-RA,0.00,VWS V14.01,2013-02-22 17:58:00,
2013-02-22 12:00:00,29.9,28.6,29.80,SSE,156,3.0,9.0,95,0.00,,OVC150,0.00,VWS V14.01,2013-02-22 18:00:00,
2013-02-22 12:03:00,29.9,28.6,29.80,South,176,0.0,8.0,95,0.00,,-RA,0.00,VWS V14.01,2013-02-22 18:03:00,
2013-02-22 12:05:00,29.9,28.6,29.79,South,175,0.0,7.0,95,0.00,,OVC150,0.00,VWS V14.01,2013-02-22 18:05:00,
2013-02-22 12:08:00,29.9,28.6,29.80,SSE,163,4.0,11.0,95,0.00,,-RA,0.00,VWS V14.01,2013-02-22 18:08:00,
2013-02-22 12:10:00,29.9,28.6,29.79,SSE,163,0.0,11.0,95,0.00,,OVC150,0.00,VWS V14.01,2013-02-22 18:10:00,
2013-02-22 12:13:00,30.0,28.7,29.79,South,183,1.0,7.0,95,0.00,,-RA,0.00,VWS V14.01,2013-02-22 18:13:00,
2013-02-22 12:15:00,30.0,28.7,29.79,South,183,0.0,7.0,95,0.00,,OVC150,0.00,VWS V14.01,2013-02-22 18:15:00,
2013-02-22 12:18:00,30.2,28.9,29.79,South,171,0.0,4.0,95,0.00,,-RA,0.00,VWS V14.01,2013-02-22 18:18:00,
2013-02-22 12:20:00,30.2,28.9,29.79,South,170,0.0,4.0,95,0.00,,OVC150,0.00,VWS V14.01,2013-02-22 18:20:00,
2013-02-22 12:23:00,30.2,28.9,29.79,South,169,0.0,5.0,95,0.00,,-RA,0.00,VWS V14.01,2013-02-22 18:23:00,
2013-02-22 12:25:00,30.2,28.9,29.79,SSE,150,2.0,5.0,95,0.00,,OVC150,0.00,VWS V14.01,2013-02-22 18:25:00,
2013-02-22 12:28:00,30.3,29.0,29.79,South,171,0.0,6.0,95,0.00,,-RA,0.00,VWS V14.01,2013-02-22 18:28:00,
2013-02-22 12:30:00,30.3,29.0,29.79,South,173,3.0,7.0,95,0.00,,OVC150,0.00,VWS V14.01,2013-02-22 18:30:00,
2013-02-22 12:33:00,30.4,29.1,29.79,South,173,3.0,4.0,95,0.00,,-RA,0.00,VWS V14.01,2013-02-22 18:33:00,
2013-02-22 12:35:00,30.4,29.1,29.79,South,174,0.0,3.0,95,0.00,,OVC150,0.00,VWS V14.01,2013-02-22 18:35:00,
2013-02-22 12:38:00,30.6,29.3,29.78,South,191,5.0,5.0,95,0.00,,-RA,0.00,VWS V14.01,2013-02-22 18:38:00,
2013-02-22 12:40:00,30.6,29.3,29.78,South,188,0.0,6.0,95,0.00,,OVC150,0.00,VWS V14.01,2013-02-22 18:40:00,
2013-02-22 12:44:00,30.7,29.4,29.78,South,180,0.0,5.0,95,0.00,,-RA,0.00,VWS V14.01,2013-02-22 18:44:00,
2013-02-22 12:45:00,30.7,29.4,29.78,South,181,0.0,5.0,95,0.00,,OVC150,0.00,VWS V14.01,2013-02-22 18:45:00,
2013-02-22 12:49:00,30.8,29.5,29.78,SE,138,0.0,4.0,95,0.00,,-RA,0.00,VWS V14.01,2013-02-22 18:49:00,
2013-02-22 12:50:00,30.9,29.6,29.78,SE,138,0.0,4.0,95,0.00,,OVC150,0.00,VWS V14.01,2013-02-22 18:50:00,
2013-02-22 12:54:00,30.9,29.6,29.77,South,171,0.0,2.0,95,0.00,,-RA,0.00,VWS V14.01,2013-02-22 18:54:00,
2013-02-22 12:55:00,30.8,29.5,29.77,South,171,0.0,2.0,95,0.00,,OVC150,0.00,VWS V14.01,2013-02-22 18:55:00,
2013-02-22 12:59:00,30.8,29.5,29.78,South,170,0.0,0.0,95,0.00,,-RA,0.00,VWS V14.01,2013-02-22 18:59:00,
2013-02-22 13:00:00,30.9,29.6,29.77,South,170,0.0,0.0,95,0.00,,OVC150,0.00,VWS V14.01,2013-02-22 19:00:00,
2013-02-22 13:04:00,30.9,29.6,29.77,South,169,0.0,0.0,95,0.00,,-RA,0.00,VWS V14.01,2013-02-22 19:04:00,
2013-02-22 13:05:00,30.9,29.6,29.77,South,169,0.0,0.0,95,0.00,,OVC150,0.00,VWS V14.01,2013-02-22 19:05:00,
2013-02-22 13:09:00,30.8,29.5,29.77,SSE,168,0.0,0.0,95,0.00,,-RA,0.00,VWS V14.01,2013-02-22 19:09:00,
2013-02-22 13:10:00,30.8,29.5,29.77,South,169,0.0,0.0,95,0.00,,OVC150,0.00,VWS V14.01,2013-02-22 19:10:00,
2013-02-22 13:14:00,30.8,29.5,29.76,ESE,122,1.0,4.0,95,0.00,,-RA,0.00,VWS V14.01,2013-02-22 19:14:00,
2013-02-22 13:15:00,30.8,29.5,29.76,ESE,121,0.0,4.0,95,0.00,,OVC150,0.00,VWS V14.01,2013-02-22 19:15:00,
2013-02-22 13:19:00,30.8,29.5,29.76,SE,124,0.0,5.0,95,0.00,,-RA,0.00,VWS V14.01,2013-02-22 19:19:00,
2013-02-22 13:20:00,30.8,29.5,29.76,SE,124,0.0,5.0,95,0.00,,OVC150,0.00,VWS V14.01,2013-02-22 19:20:00,
2013-02-22 13:24:00,31.0,29.7,29.75,SE,136,5.0,6.0,95,0.00,,-RA,0.00,VWS V14.01,2013-02-22 19:24:00,
2013-02-22 13:25:00,31.0,29.7,29.76,SE,136,5.0,6.0,95,0.00,,OVC150,0.00,VWS V14.01,2013-02-22 19:25:00,
2013-02-22 13:29:00,31.0,29.7,29.76,SE,146,3.0,5.0,95,0.00,,-RA,0.00,VWS V14.01,2013-02-22 19:29:00,
2013-02-22 13:30:00,31.0,29.7,29.76,SE,146,3.0,5.0,95,0.00,,OVC150,0.00,VWS V14.01,2013-02-22 19:30:00,
2013-02-22 13:34:00,30.8,29.5,29.76,SE,126,5.0,7.0,95,0.00,,-RA,0.00,VWS V14.01,2013-02-22 19:34:00,
2013-02-22 13:35:00,30.8,29.5,29.76,SE,126,5.0,7.0,95,0.00,,OVC150,0.00,VWS V14.01,2013-02-22 19:35:00,
2013-02-22 13:39:00,30.7,29.4,29.76,SSE,148,4.0,6.0,95,0.00,,-RA,0.00,VWS V14.01,2013-02-22 19:39:00,
2013-02-22 13:40:00,30.7,29.4,29.76,SSE,148,4.0,6.0,95,0.00,,OVC150,0.00,VWS V14.01,2013-02-22 19:40:00,
2013-02-22 13:44:00,30.8,29.5,29.76,SE,129,0.0,5.0,95,0.00,,-RA,0.00,VWS V14.01,2013-02-22 19:44:00,
2013-02-22 13:45:00,30.8,29.5,29.76,SE,129,0.0,5.0,95,0.00,,OVC150,0.00,VWS V14.01,2013-02-22 19:45:00,
2013-02-22 13:49:00,30.8,29.5,29.76,SE,139,3.0,5.0,95,0.00,,-RA,0.00,VWS V14.01,2013-02-22 19:49:00,
2013-02-22 13:50:00,30.8,29.5,29.76,SE,139,3.0,5.0,95,0.00,,OVC150,0.00,VWS V14.01,2013-02-22 19:50:00,
2013-02-22 13:54:00,30.8,29.5,29.75,SE,140,0.0,0.0,95,0.00,,-RA,0.00,VWS V14.01,2013-02-22 19:54:00,
2013-02-22 13:55:00,30.8,29.5,29.75,SE,140,0.0,0.0,95,0.00,,OVC150,0.00,VWS V14.01,2013-02-22 19:55:00,
2013-02-22 13:59:00,30.9,29.6,29.76,SE,134,0.0,7.0,95,0.01,,-RA,0.01,VWS V14.01,2013-02-22 19:59:00,
2013-02-22 14:00:00,30.9,29.6,29.76,SE,134,0.0,7.0,95,0.01,,OVC150,0.01,VWS V14.01,2013-02-22 20:00:00,
2013-02-22 14:05:00,30.8,29.5,29.75,SSE,155,0.0,6.0,95,0.01,,-RA,0.01,VWS V14.01,2013-02-22 20:05:00,
2013-02-22 14:10:00,30.7,29.4,29.75,SE,132,0.0,5.0,95,0.01,,-RA,0.01,VWS V14.01,2013-02-22 20:10:00,
2013-02-22 14:15:00,30.6,29.3,29.76,SE,134,0.0,3.0,95,0.01,,-RA,0.01,VWS V14.01,2013-02-22 20:15:00,
2013-02-22 14:20:00,30.6,29.3,29.75,SE,133,0.0,3.0,95,0.01,,-RA,0.01,VWS V14.01,2013-02-22 20:20:00,
2013-02-22 14:25:00,30.6,29.3,29.75,SE,133,0.0,0.0,95,0.01,,-RA,0.01,VWS V14.01,2013-02-22 20:25:00,
2013-02-22 14:30:00,30.7,29.4,29.75,SE,134,0.0,3.0,95,0.01,,-RA,0.01,VWS V14.01,2013-02-22 20:30:00,
2013-02-22 14:35:00,30.6,29.3,29.75,SE,134,0.0,0.0,95,0.01,,-RA,0.01,VWS V14.01,2013-02-22 20:35:00,
2013-02-22 14:40:00,30.7,29.4,29.75,SE,134,0.0,0.0,95,0.01,,-RA,0.01,VWS V14.01,2013-02-22 20:40:00,
2013-02-22 14:45:00,30.8,29.5,29.75,SE,134,0.0,0.0,95,0.01,,-RA,0.01,VWS V14.01,2013-02-22 20:45:00,
2013-02-22 14:50:00,31.0,29.7,29.75,SE,133,0.0,0.0,95,0.01,,-RA,0.01,VWS V14.01,2013-02-22 20:50:00,
2013-02-22 14:55:00,31.0,29.7,29.75,SE,134,4.0,5.0,95,0.01,,-RA,0.01,VWS V14.01,2013-02-22 20:55:00,
2013-02-22 15:00:00,30.9,29.6,29.75,SE,134,0.0,0.0,95,0.00,,-RA,0.01,VWS V14.01,2013-02-22 21:00:00,
2013-02-22 15:05:00,30.9,29.6,29.75,SE,140,0.0,1.0,95,0.00,,-RA,0.01,VWS V14.01,2013-02-22 21:05:00,
2013-02-22 15:10:00,30.7,29.4,29.76,SSE,163,0.0,6.0,95,0.00,,OVC150,0.01,VWS V14.01,2013-02-22 21:10:00,
2013-02-22 15:11:00,30.7,29.4,29.76,SE,146,3.0,6.0,95,0.00,,-RA,0.01,VWS V14.01,2013-02-22 21:11:00,
2013-02-22 15:15:00,30.7,29.4,29.77,SSW,201,5.0,6.0,95,0.00,,OVC150,0.01,VWS V14.01,2013-02-22 21:15:00,
2013-02-22 15:16:00,30.7,29.4,29.77,SSW,196,6.0,7.0,95,0.00,,-RA,0.01,VWS V14.01,2013-02-22 21:16:00,
2013-02-22 15:20:00,30.8,29.5,29.77,South,174,4.0,7.0,95,0.00,,OVC150,0.01,VWS V14.01,2013-02-22 21:20:00,
2013-02-22 15:21:00,30.9,29.6,29.77,SSW,194,6.0,7.0,95,0.00,,-RA,0.01,VWS V14.01,2013-02-22 21:21:00,
2013-02-22 15:25:00,31.1,29.8,29.77,SSW,195,5.0,7.0,95,0.00,,OVC150,0.01,VWS V14.01,2013-02-22 21:25:00,
2013-02-22 15:26:00,31.2,29.9,29.77,SSW,205,5.0,8.0,95,0.00,,-RA,0.01,VWS V14.01,2013-02-22 21:26:00,
2013-02-22 15:30:00,31.3,29.8,29.77,South,177,4.0,8.0,94,0.00,,OVC150,0.01,VWS V14.01,2013-02-22 21:30:00,
2013-02-22 15:31:00,31.3,29.8,29.77,SSW,198,5.0,8.0,94,0.00,,-RA,0.01,VWS V14.01,2013-02-22 21:31:00,
2013-02-22 15:35:00,31.4,29.9,29.77,SSW,207,4.0,8.0,94,0.00,,OVC150,0.01,VWS V14.01,2013-02-22 21:35:00,
2013-02-22 15:36:00,31.4,29.9,29.77,South,180,4.0,9.0,94,0.00,,-RA,0.01,VWS V14.01,2013-02-22 21:36:00,
2013-02-22 15:40:00,31.4,29.9,29.77,SSW,202,6.0,9.0,94,0.00,,OVC150,0.01,VWS V14.01,2013-02-22 21:40:00,
2013-02-22 15:41:00,31.4,29.6,29.77,South,184,0.0,9.0,93,0.00,,-RA,0.01,VWS V14.01,2013-02-22 21:41:00,
2013-02-22 15:45:00,31.5,29.7,29.77,South,176,4.0,7.0,93,0.00,,OVC150,0.01,VWS V14.01,2013-02-22 21:45:00,
2013-02-22 15:46:00,31.5,29.7,29.77,SSW,205,4.0,7.0,93,0.00,,-RA,0.01,VWS V14.01,2013-02-22 21:46:00,
2013-02-22 15:50:00,31.5,29.7,29.77,North,360,5.0,10.0,93,0.00,,OVC150,0.01,VWS V14.01,2013-02-22 21:50:00,
2013-02-22 15:51:00,31.4,29.6,29.77,SW,216,4.0,10.0,93,0.00,,-RA,0.01,VWS V14.01,2013-02-22 21:51:00,
2013-02-22 15:55:00,31.5,29.7,29.77,SSW,208,0.0,8.0,93,0.00,,OVC150,0.01,VWS V14.01,2013-02-22 21:55:00,
2013-02-22 15:56:00,31.5,29.7,29.77,SSW,204,0.0,8.0,93,0.00,,-RA,0.01,VWS V14.01,2013-02-22 21:56:00,
2013-02-22 16:00:00,31.6,29.8,29.77,SW,229,6.0,9.0,93,0.00,,OVC150,0.01,VWS V14.01,2013-02-22 22:00:00,
2013-02-22 16:02:00,31.5,29.5,29.77,SSW,198,6.0,9.0,92,0.00,,-RA,0.01,VWS V14.01,2013-02-22 22:02:00,
2013-02-22 16:05:00,31.5,29.5,29.77,SSW,198,0.0,7.0,92,0.00,,OVC150,0.01,VWS V14.01,2013-02-22 22:05:00,
2013-02-22 16:07:00,31.6,29.5,29.76,WSW,242,3.0,6.0,92,0.00,,-RA,0.01,VWS V14.01,2013-02-22 22:07:00,
2013-02-22 16:10:00,31.6,29.5,29.76,SW,229,6.0,8.0,92,0.00,,OVC150,0.01,VWS V14.01,2013-02-22 22:10:00,
2013-02-22 16:12:00,31.6,29.5,29.76,WSW,244,4.0,9.0,92,0.00,,-RA,0.01,VWS V14.01,2013-02-22 22:12:00,
2013-02-22 16:15:00,31.5,29.5,29.76,SSW,206,2.0,9.0,92,0.00,,OVC150,0.01,VWS V14.01,2013-02-22 22:15:00,
2013-02-22 16:17:00,31.5,29.5,29.76,SW,216,5.0,8.0,92,0.00,,-RA,0.01,VWS V14.01,2013-02-22 22:17:00,
2013-02-22 16:20:00,31.5,29.5,29.76,South,191,6.0,8.0,92,0.00,,OVC150,0.01,VWS V14.01,2013-02-22 22:20:00,
2013-02-22 16:22:00,31.5,29.5,29.76,SSW,203,0.0,8.0,92,0.00,,-RA,0.01,VWS V14.01,2013-02-22 22:22:00,
2013-02-22 16:25:00,31.5,29.5,29.76,South,188,4.0,7.0,92,0.00,,OVC150,0.01,VWS V14.01,2013-02-22 22:25:00,
2013-02-22 16:27:00,31.6,29.5,29.76,SSW,209,4.0,6.0,92,0.00,,-RA,0.01,VWS V14.01,2013-02-22 22:27:00,
2013-02-22 16:30:00,31.6,29.3,29.76,SSW,202,4.0,7.0,91,0.00,,OVC150,0.01,VWS V14.01,2013-02-22 22:30:00,
2013-02-22 16:32:00,31.6,29.3,29.76,SW,224,5.0,6.0,91,0.00,,-RA,0.01,VWS V14.01,2013-02-22 22:32:00,
2013-02-22 16:35:00,31.6,29.3,29.76,SSW,212,4.0,8.0,91,0.00,,OVC150,0.01,VWS V14.01,2013-02-22 22:35:00,
2013-02-22 16:37:00,31.5,29.2,29.76,SSW,207,0.0,8.0,91,0.00,,-RA,0.01,VWS V14.01,2013-02-22 22:37:00,
2013-02-22 16:40:00,31.6,29.3,29.76,SSW,206,1.0,7.0,91,0.00,,OVC150,0.01,VWS V14.01,2013-02-22 22:40:00,
2013-02-22 16:42:00,31.6,29.3,29.76,SSW,211,5.0,5.0,91,0.00,,-RA,0.01,VWS V14.01,2013-02-22 22:42:00,
2013-02-22 16:45:00,31.6,29.3,29.76,SW,225,5.0,7.0,91,0.00,,OVC150,0.01,VWS V14.01,2013-02-22 22:45:00,
2013-02-22 16:47:00,31.6,29.3,29.76,SSW,209,4.0,7.0,91,0.00,,-RA,0.01,VWS V14.01,2013-02-22 22:47:00,
2013-02-22 16:50:00,31.5,29.2,29.77,SW,227,4.0,7.0,91,0.00,,OVC150,0.01,VWS V14.01,2013-02-22 22:50:00,
2013-02-22 16:52:00,31.5,29.2,29.77,SSW,208,4.0,7.0,91,0.00,,-RA,0.01,VWS V14.01,2013-02-22 22:52:00,
2013-02-22 16:55:00,31.5,29.2,29.77,South,190,0.0,5.0,91,0.00,,OVC150,0.01,VWS V14.01,2013-02-22 22:55:00,
2013-02-22 16:57:00,31.5,29.2,29.77,South,189,0.0,5.0,91,0.00,,-RA,0.01,VWS V14.01,2013-02-22 22:57:00,
2013-02-22 17:00:00,31.5,29.2,29.77,WSW,240,6.0,6.0,91,0.00,,OVC150,0.01,VWS V14.01,2013-02-22 23:00:00,
2013-02-22 17:02:00,31.5,29.2,29.77,SW,226,4.0,6.0,91,0.00,,-RA,0.01,VWS V14.01,2013-02-22 23:02:00,
2013-02-22 17:05:00,31.5,28.9,29.76,SSW,209,0.0,6.0,90,0.00,,OVC150,0.01,VWS V14.01,2013-02-22 23:05:00,
2013-02-22 17:08:00,31.4,28.8,29.77,SW,231,0.0,6.0,90,0.00,,-RA,0.01,VWS V14.01,2013-02-22 23:08:00,
2013-02-22 17:10:00,31.4,29.1,29.77,SW,234,2.0,6.0,91,0.00,,OVC150,0.01,VWS V14.01,2013-02-22 23:10:00,
2013-02-22 17:13:00,31.5,29.2,29.77,SW,233,0.0,5.0,91,0.00,,-RA,0.01,VWS V14.01,2013-02-22 23:13:00,
2013-02-22 17:15:00,31.5,29.2,29.77,SW,232,0.0,4.0,91,0.00,,OVC150,0.01,VWS V14.01,2013-02-22 23:15:00,
2013-02-22 17:18:00,31.5,28.9,29.77,SW,231,4.0,6.0,90,0.00,,-RA,0.01,VWS V14.01,2013-02-22 23:18:00,
2013-02-22 17:20:00,31.5,29.2,29.77,SW,229,0.0,6.0,91,0.00,,OVC150,0.01,VWS V14.01,2013-02-22 23:20:00,
2013-02-22 17:23:00,31.5,28.9,29.77,SW,229,4.0,5.0,90,0.00,,-RA,0.01,VWS V14.01,2013-02-22 23:23:00,
2013-02-22 17:25:00,31.5,28.9,29.77,WSW,240,0.0,5.0,90,0.00,,OVC150,0.01,VWS V14.01,2013-02-22 23:25:00,
2013-02-22 17:28:00,31.6,29.0,29.77,SW,223,0.0,6.0,90,0.00,,-RA,0.01,VWS V14.01,2013-02-22 23:28:00,
2013-02-22 17:30:00,31.6,29.0,29.77,SW,228,4.0,6.0,90,0.00,,OVC150,0.01,VWS V14.01,2013-02-22 23:30:00,
2013-02-22 17:33:00,31.5,28.9,29.77,SW,232,9.0,9.0,90,0.00,,-RA,0.01,VWS V14.01,2013-02-22 23:33:00,
2013-02-22 17:35:00,31.4,28.8,29.77,SW,228,4.0,9.0,90,0.00,,OVC150,0.01,VWS V14.01,2013-02-22 23:35:00,
2013-02-22 17:38:00,31.4,28.8,29.77,SW,226,5.0,6.0,90,0.00,,-RA,0.01,VWS V14.01,2013-02-22 23:38:00,
2013-02-22 17:40:00,31.3,28.7,29.77,SW,222,0.0,6.0,90,0.00,,OVC150,0.01,VWS V14.01,2013-02-22 23:40:00,
2013-02-22 17:43:00,31.4,28.8,29.77,SW,219,0.0,6.0,90,0.00,,-RA,0.01,VWS V14.01,2013-02-22 23:43:00,
2013-02-22 17:45:00,31.4,28.8,29.77,WSW,239,5.0,6.0,90,0.00,,OVC150,0.01,VWS V14.01,2013-02-22 23:45:00,
2013-02-22 17:48:00,31.4,28.8,29.78,SW,225,0.0,8.0,90,0.00,,-RA,0.01,VWS V14.01,2013-02-22 23:48:00,
2013-02-22 17:50:00,31.4,28.8,29.78,SW,225,0.0,8.0,90,0.00,,OVC150,0.01,VWS V14.01,2013-02-22 23:50:00,
2013-02-22 17:53:00,31.4,28.8,29.78,SW,236,5.0,7.0,90,0.00,,-RA,0.01,VWS V14.01,2013-02-22 23:53:00,
2013-02-22 17:55:00,31.3,28.7,29.78,WSW,255,4.0,7.0,90,0.00,,OVC150,0.01,VWS V14.01,2013-02-22 23:55:00,
2013-02-22 17:58:00,31.2,28.3,29.78,WSW,244,4.0,7.0,89,0.00,,-RA,0.01,VWS V14.01,2013-02-22 23:58:00,
2013-02-22 18:00:00,31.3,28.4,29.78,SW,215,5.0,7.0,89,0.00,,OVC150,0.01,VWS V14.01,2013-02-23 00:00:00,
2013-02-22 18:03:00,31.2,28.3,29.78,WSW,246,0.0,9.0,89,0.00,,-RA,0.01,VWS V14.01,2013-02-23 00:03:00,
2013-02-22 18:05:00,31.2,28.3,29.78,SW,221,7.0,9.0,89,0.00,,OVC150,0.01,VWS V14.01,2013-02-23 00:05:00,
2013-02-22 18:08:00,31.1,28.2,29.78,SW,229,3.0,7.0,89,0.00,,-RA,0.01,VWS V14.01,2013-02-23 00:08:00,
2013-02-22 18:10:00,31.1,28.2,29.78,WSW,254,2.0,7.0,89,0.00,,OVC150,0.01,VWS V14.01,2013-02-23 00:10:00,
2013-02-22 18:13:00,31.1,28.2,29.79,SW,224,2.0,7.0,89,0.00,,-RA,0.01,VWS V14.01,2013-02-23 00:13:00,
2013-02-22 18:15:00,31.1,28.2,29.78,SW,229,2.0,7.0,89,0.00,,OVC150,0.01,VWS V14.01,2013-02-23 00:15:00,
2013-02-22 18:19:00,31.0,28.1,29.78,SW,236,2.0,8.0,89,0.00,,-RA,0.01,VWS V14.01,2013-02-23 00:19:00,
2013-02-22 18:20:00,31.0,28.1,29.78,SW,227,4.0,8.0,89,0.00,,OVC150,0.01,VWS V14.01,2013-02-23 00:20:00,
2013-02-22 18:24:00,31.0,28.1,29.78,South,187,0.0,6.0,89,0.00,,-RA,0.01,VWS V14.01,2013-02-23 00:24:00,
2013-02-22 18:25:00,31.0,28.1,29.78,WSW,254,6.0,6.0,89,0.01,,OVC150,0.02,VWS V14.01,2013-02-23 00:25:00,
2013-02-22 18:29:00,31.0,28.1,29.78,SW,221,0.0,6.0,89,0.01,,-RA,0.02,VWS V14.01,2013-02-23 00:29:00,
2013-02-22 18:30:00,31.0,28.1,29.78,SW,221,0.0,6.0,89,0.01,,OVC150,0.02,VWS V14.01,2013-02-23 00:30:00,
2013-02-22 18:34:00,31.0,27.9,29.78,WSW,242,4.0,9.0,88,0.01,,-RA,0.02,VWS V14.01,2013-02-23 00:34:00,
2013-02-22 18:35:00,31.0,27.9,29.78,WSW,241,3.0,9.0,88,0.01,,OVC150,0.02,VWS V14.01,2013-02-23 00:35:00,
2013-02-22 18:39:00,30.9,28.0,29.78,SW,225,0.0,7.0,89,0.01,,-RA,0.02,VWS V14.01,2013-02-23 00:39:00,
2013-02-22 18:40:00,30.9,28.0,29.78,SW,225,0.0,7.0,89,0.01,,OVC150,0.02,VWS V14.01,2013-02-23 00:40:00,
2013-02-22 18:44:00,30.9,28.0,29.78,SW,219,0.0,6.0,89,0.01,,-RA,0.02,VWS V14.01,2013-02-23 00:44:00,
2013-02-22 18:45:00,30.9,28.0,29.78,SW,219,0.0,6.0,89,0.01,,OVC150,0.02,VWS V14.01,2013-02-23 00:45:00,
2013-02-22 18:49:00,30.9,28.0,29.79,SW,230,5.0,7.0,89,0.01,,-RA,0.02,VWS V14.01,2013-02-23 00:49:00,
2013-02-22 18:50:00,30.9,28.0,29.79,SW,230,5.0,7.0,89,0.01,,OVC150,0.02,VWS V14.01,2013-02-23 00:50:00,
2013-02-22 18:54:00,30.8,28.0,29.78,WSW,242,7.0,9.0,89,0.01,,-RA,0.02,VWS V14.01,2013-02-23 00:54:00,
2013-02-22 18:55:00,30.8,28.0,29.78,WSW,242,7.0,9.0,89,0.01,,OVC150,0.02,VWS V14.01,2013-02-23 00:55:00,
2013-02-22 18:59:00,30.7,27.9,29.79,SSW,199,0.0,8.0,89,0.01,,-RA,0.02,VWS V14.01,2013-02-23 00:59:00,
2013-02-22 19:00:00,30.7,27.9,29.79,SSW,199,0.0,8.0,89,0.01,,OVC150,0.02,VWS V14.01,2013-02-23 01:00:00,
2013-02-22 19:04:00,30.7,27.9,29.79,SW,225,0.0,8.0,89,0.01,,-RA,0.02,VWS V14.01,2013-02-23 01:04:00,
2013-02-22 19:05:00,30.7,27.9,29.79,SW,225,0.0,8.0,89,0.01,,OVC150,0.02,VWS V14.01,2013-02-23 01:05:00,
2013-02-22 19:09:00,30.7,27.9,29.79,SW,227,0.0,8.0,89,0.01,,-RA,0.02,VWS V14.01,2013-02-23 01:09:00,
2013-02-22 19:10:00,30.7,27.9,29.79,SW,228,3.0,8.0,89,0.01,,OVC150,0.02,VWS V14.01,2013-02-23 01:10:00,
2013-02-22 19:14:00,30.6,27.8,29.79,SW,217,6.0,8.0,89,0.01,,-RA,0.02,VWS V14.01,2013-02-23 01:14:00,
2013-02-22 19:15:00,30.6,27.8,29.79,SW,235,5.0,8.0,89,0.01,,OVC150,0.02,VWS V14.01,2013-02-23 01:15:00,
2013-02-22 19:20:00,30.6,27.8,29.79,SW,225,6.0,11.0,89,0.01,,-RA,0.02,VWS V14.01,2013-02-23 01:20:00,
2013-02-22 19:25:00,30.5,27.6,29.79,South,171,0.0,10.0,89,0.00,,-RA,0.02,VWS V14.01,2013-02-23 01:25:00,
2013-02-22 19:30:00,30.4,27.5,29.79,SSW,209,4.0,8.0,89,0.00,,-RA,0.02,VWS V14.01,2013-02-23 01:30:00,
2013-02-22 19:35:00,30.4,27.5,29.79,South,172,4.0,10.0,89,0.00,,-RA,0.02,VWS V14.01,2013-02-23 01:35:00,
2013-02-22 19:40:00,30.4,27.5,29.79,SW,235,5.0,7.0,89,0.00,,-RA,0.02,VWS V14.01,2013-02-23 01:40:00,
2013-02-22 19:45:00,30.4,27.5,29.79,WSW,242,0.0,7.0,89,0.00,,-RA,0.02,VWS V14.01,2013-02-23 01:45:00,
2013-02-22 19:50:00,30.3,27.5,29.79,WSW,238,3.0,10.0,89,0.00,,-RA,0.02,VWS V14.01,2013-02-23 01:50:00,
2013-02-22 19:55:00,30.3,27.5,29.79,SW,233,4.0,11.0,89,0.00,,-RA,0.02,VWS V14.01,2013-02-23 01:55:00,
2013-02-22 20:00:00,30.3,27.5,29.79,WSW,252,6.0,9.0,89,0.00,,-RA,0.02,VWS V14.01,2013-02-23 02:00:00,
2013-02-22 20:05:00,30.3,27.5,29.79,SSW,201,5.0,9.0,89,0.00,,-RA,0.02,VWS V14.01,2013-02-23 02:05:00,
2013-02-22 20:10:00,30.2,27.4,29.79,SW,215,0.0,9.0,89,0.00,,-RA,0.02,VWS V14.01,2013-02-23 02:10:00,
2013-02-22 20:15:00,30.2,27.4,29.79,WSW,242,4.0,12.0,89,0.00,,-RA,0.02,VWS V14.01,2013-02-23 02:15:00,
2013-02-22 20:20:00,30.2,27.4,29.79,SSW,200,4.0,7.0,89,0.00,,-RA,0.02,VWS V14.01,2013-02-23 02:20:00,
2013-02-22 20:25:00,30.2,27.4,29.79,SW,214,7.0,10.0,89,0.00,,-RA,0.02,VWS V14.01,2013-02-23 02:25:00,
2013-02-22 20:30:00,30.1,27.3,29.80,SSW,199,5.0,10.0,89,0.00,,OVC150,0.02,VWS V14.01,2013-02-23 02:30:00,
2013-02-22 20:31:00,30.0,27.2,29.80,SW,214,6.0,10.0,89,0.00,,-RA,0.02,VWS V14.01,2013-02-23 02:31:00,
2013-02-22 20:35:00,30.0,27.2,29.80,WSW,257,7.0,9.0,89,0.00,,OVC150,0.02,VWS V14.01,2013-02-23 02:35:00,
2013-02-22 20:36:00,30.0,27.2,29.80,SSW,205,5.0,9.0,89,0.00,,-RA,0.02,VWS V14.01,2013-02-23 02:36:00,
2013-02-22 20:40:00,30.0,27.2,29.80,WSW,256,6.0,8.0,89,0.00,,OVC150,0.02,VWS V14.01,2013-02-23 02:40:00,
2013-02-22 20:41:00,29.9,26.8,29.80,SW,229,10.0,11.0,88,0.00,,-RA,0.02,VWS V14.01,2013-02-23 02:41:00,
2013-02-22 20:45:00,29.9,26.8,29.80,SSW,205,0.0,10.0,88,0.00,,OVC150,0.02,VWS V14.01,2013-02-23 02:45:00,
2013-02-22 20:46:00,29.9,27.1,29.80,South,186,4.0,10.0,89,0.00,,-RA,0.02,VWS V14.01,2013-02-23 02:46:00,
2013-02-22 20:50:00,29.9,27.1,29.80,South,179,5.0,7.0,89,0.00,,OVC150,0.02,VWS V14.01,2013-02-23 02:50:00,
2013-02-22 20:51:00,29.9,27.1,29.80,WSW,238,6.0,8.0,89,0.00,,-RA,0.02,VWS V14.01,2013-02-23 02:51:00,
2013-02-22 20:55:00,29.8,26.7,29.80,SW,231,7.0,15.0,88,0.00,,OVC150,0.02,VWS V14.01,2013-02-23 02:55:00,
2013-02-22 20:56:00,29.8,26.7,29.80,SW,227,9.0,13.0,88,0.00,,-RA,0.02,VWS V14.01,2013-02-23 02:56:00,
2013-02-22 21:00:00,29.8,26.7,29.80,SW,225,6.0,11.0,88,0.00,,OVC150,0.02,VWS V14.01,2013-02-23 03:00:00,
2013-02-22 21:01:00,29.8,26.7,29.80,South,191,1.0,10.0,88,0.00,,-RA,0.02,VWS V14.01,2013-02-23 03:01:00,
2013-02-22 21:05:00,29.8,26.7,29.80,SW,215,6.0,8.0,88,0.00,,OVC150,0.02,VWS V14.01,2013-02-23 03:05:00,
2013-02-22 21:06:00,29.8,26.7,29.80,West,262,7.0,11.0,88,0.00,,-RA,0.02,VWS V14.01,2013-02-23 03:06:00,
2013-02-22 21:10:00,29.7,26.6,29.80,SW,232,5.0,9.0,88,0.00,,OVC150,0.02,VWS V14.01,2013-02-23 03:10:00,
2013-02-22 21:11:00,29.7,26.6,29.80,SW,225,0.0,9.0,88,0.00,,-RA,0.02,VWS V14.01,2013-02-23 03:11:00,
2013-02-22 21:15:00,29.7,26.6,29.80,SW,221,8.0,12.0,88,0.00,,OVC150,0.02,VWS V14.01,2013-02-23 03:15:00,
2013-02-22 21:16:00,29.7,26.6,29.80,SSW,205,6.0,12.0,88,0.00,,-RA,0.02,VWS V14.01,2013-02-23 03:16:00,
2013-02-22 21:20:00,29.7,26.9,29.80,SW,229,9.0,10.0,89,0.00,,OVC150,0.02,VWS V14.01,2013-02-23 03:20:00,
2013-02-22 21:21:00,29.7,26.6,29.80,SW,223,3.0,9.0,88,0.00,,-RA,0.02,VWS V14.01,2013-02-23 03:21:00,
2013-02-22 21:25:00,29.6,26.5,29.80,SW,226,10.0,10.0,88,0.00,,OVC150,0.02,VWS V14.01,2013-02-23 03:25:00,
2013-02-22 21:26:00,29.6,26.8,29.80,SSW,196,0.0,10.0,89,0.00,,-RA,0.02,VWS V14.01,2013-02-23 03:26:00,
2013-02-22 21:30:00,29.6,26.8,29.80,SW,220,7.0,9.0,89,0.00,,OVC150,0.02,VWS V14.01,2013-02-23 03:30:00,
2013-02-22 21:31:00,29.6,26.8,29.80,SW,227,6.0,10.0,89,0.00,,-RA,0.02,VWS V14.01,2013-02-23 03:31:00,
2013-02-22 21:35:00,29.6,26.8,29.80,SW,233,10.0,10.0,89,0.00,,OVC150,0.02,VWS V14.01,2013-02-23 03:35:00,
2013-02-22 21:37:00,29.5,26.7,29.80,SW,225,2.0,11.0,89,0.00,,-RA,0.02,VWS V14.01,2013-02-23 03:37:00,
2013-02-22 21:40:00,29.5,26.7,29.80,SW,227,9.0,12.0,89,0.00,,OVC150,0.02,VWS V14.01,2013-02-23 03:40:00,
2013-02-22 21:42:00,29.5,26.7,29.80,SSW,209,6.0,11.0,89,0.00,,-RA,0.02,VWS V14.01,2013-02-23 03:42:00,
2013-02-22 21:45:00,29.4,26.6,29.79,SW,231,13.0,14.0,89,0.00,,OVC150,0.02,VWS V14.01,2013-02-23 03:45:00,
2013-02-22 21:47:00,29.4,26.6,29.80,SW,221,2.0,14.0,89,0.00,,-RA,0.02,VWS V14.01,2013-02-23 03:47:00,
2013-02-22 21:50:00,29.4,26.3,29.80,WSW,242,9.0,14.0,88,0.00,,OVC150,0.02,VWS V14.01,2013-02-23 03:50:00,
2013-02-22 21:52:00,29.3,26.5,29.79,WSW,251,5.0,14.0,89,0.00,,-RA,0.02,VWS V14.01,2013-02-23 03:52:00,
2013-02-22 21:55:00,29.4,26.3,29.79,SW,236,8.0,12.0,88,0.00,,OVC150,0.02,VWS V14.01,2013-02-23 03:55:00,
2013-02-22 21:57:00,29.3,26.5,29.79,SW,236,4.0,12.0,89,0.00,,-RA,0.02,VWS V14.01,2013-02-23 03:57:00,
2013-02-22 22:00:00,29.3,26.5,29.79,SW,221,3.0,12.0,89,0.00,,OVC150,0.02,VWS V14.01,2013-02-23 04:00:00,
2013-02-22 22:02:00,29.3,26.5,29.79,WSW,238,5.0,11.0,89,0.00,,-RA,0.02,VWS V14.01,2013-02-23 04:02:00,
2013-02-22 22:05:00,29.3,26.5,29.79,SW,222,6.0,11.0,89,0.00,,OVC150,0.02,VWS V14.01,2013-02-23 04:05:00,
2013-02-22 22:07:00,29.3,26.5,29.79,WSW,245,4.0,11.0,89,0.00,,-RA,0.02,VWS V14.01,2013-02-23 04:07:00,
2013-02-22 22:10:00,29.3,26.5,29.80,SW,215,7.0,11.0,89,0.00,,OVC150,0.02,VWS V14.01,2013-02-23 04:10:00,
2013-02-22 22:12:00,29.3,26.5,29.80,WSW,238,3.0,10.0,89,0.00,,-RA,0.02,VWS V14.01,2013-02-23 04:12:00,
2013-02-22 22:15:00,29.2,26.4,29.80,SSW,208,6.0,13.0,89,0.00,,OVC150,0.02,VWS V14.01,2013-02-23 04:15:00,
2013-02-22 22:17:00,29.2,26.4,29.79,SW,234,12.0,14.0,89,0.00,,-RA,0.02,VWS V14.01,2013-02-23 04:17:00,
2013-02-22 22:20:00,29.2,26.4,29.80,South,170,6.0,14.0,89,0.00,,OVC150,0.02,VWS V14.01,2013-02-23 04:20:00,
2013-02-22 22:22:00,29.2,26.4,29.80,SW,234,10.0,12.0,89,0.00,,-RA,0.02,VWS V14.01,2013-02-23 04:22:00,
2013-02-22 22:25:00,29.2,26.4,29.80,WSW,240,8.0,12.0,89,0.00,,OVC150,0.02,VWS V14.01,2013-02-23 04:25:00,
2013-02-22 22:27:00,29.2,26.4,29.80,WSW,253,7.0,9.0,89,0.00,,-RA,0.02,VWS V14.01,2013-02-23 04:27:00,
2013-02-22 22:30:00,29.2,26.4,29.80,SW,217,4.0,12.0,89,0.00,,OVC150,0.02,VWS V14.01,2013-02-23 04:30:00,
2013-02-22 22:32:00,29.2,26.4,29.79,SSW,196,2.0,10.0,89,0.00,,-RA,0.02,VWS V14.01,2013-02-23 04:32:00,
2013-02-22 22:35:00,29.1,26.3,29.79,SW,235,6.0,10.0,89,0.00,,OVC150,0.02,VWS V14.01,2013-02-23 04:35:00,
2013-02-22 22:37:00,29.1,26.3,29.79,SW,215,5.0,13.0,89,0.00,,-RA,0.02,VWS V14.01,2013-02-23 04:37:00,
2013-02-22 22:40:00,29.1,26.3,29.79,WSW,252,8.0,13.0,89,0.00,,OVC150,0.02,VWS V14.01,2013-02-23 04:40:00,
2013-02-22 22:43:00,29.2,26.4,29.79,WSW,241,4.0,10.0,89,0.00,,-RA,0.02,VWS V14.01,2013-02-23 04:43:00,
2013-02-22 22:45:00,29.2,26.4,29.79,SW,223,6.0,12.0,89,0.00,,OVC150,0.02,VWS V14.01,2013-02-23 04:45:00,
2013-02-22 22:48:00,29.2,26.4,29.79,WSW,248,6.0,12.0,89,0.00,,-RA,0.02,VWS V14.01,2013-02-23 04:48:00,
2013-02-22 22:50:00,29.1,26.3,29.79,SW,217,10.0,12.0,89,0.00,,OVC150,0.02,VWS V14.01,2013-02-23 04:50:00,
2013-02-22 22:53:00,29.2,26.4,29.79,SSW,192,8.0,10.0,89,0.00,,-RA,0.02,VWS V14.01,2013-02-23 04:53:00,
2013-02-22 22:55:00,29.1,26.3,29.80,SW,227,3.0,10.0,89,0.00,,OVC150,0.02,VWS V14.01,2013-02-23 04:55:00,
2013-02-22 22:58:00,29.1,26.3,29.79,North,360,2.0,11.0,89,0.00,,-RA,0.02,VWS V14.01,2013-02-23 04:58:00,
2013-02-22 23:00:00,29.1,26.3,29.79,WSW,257,5.0,13.0,89,0.00,,-RA,0.02,VWS V14.01,2013-02-23 05:00:00,
2013-02-22 23:02:00,29.2,26.4,29.79,SW,232,6.0,13.0,89,0.00,,-RA,0.02,VWS V14.01,2013-02-23 05:02:00,
2013-02-22 23:03:00,29.1,26.3,29.79,WSW,252,13.0,13.0,89,0.00,,-RA,0.02,VWS V14.01,2013-02-23 05:03:00,
2013-02-22 23:04:00,29.1,26.3,29.79,WSW,245,3.0,13.0,89,0.00,,-RA,0.02,VWS V14.01,2013-02-23 05:04:00,
2013-02-22 23:05:00,29.1,26.3,29.79,WSW,245,3.0,13.0,89,0.00,,OVC150,0.02,VWS V14.01,2013-02-23 05:05:00,
2013-02-22 23:09:00,29.1,26.3,29.79,SW,230,4.0,14.0,89,0.00,,-RA,0.02,VWS V14.01,2013-02-23 05:09:00,
2013-02-22 23:10:00,29.1,26.3,29.79,SW,230,4.0,14.0,89,0.00,,OVC150,0.02,VWS V14.01,2013-02-23 05:10:00,
2013-02-22 23:14:00,29.1,26.3,29.79,WSW,244,6.0,12.0,89,0.00,,-RA,0.02,VWS V14.01,2013-02-23 05:14:00,
2013-02-22 23:15:00,29.1,26.3,29.79,WSW,244,6.0,12.0,89,0.00,,OVC150,0.02,VWS V14.01,2013-02-23 05:15:00,
2013-02-22 23:19:00,29.1,26.3,29.79,SW,234,2.0,11.0,89,0.00,,-RA,0.02,VWS V14.01,2013-02-23 05:19:00,
2013-02-22 23:20:00,29.1,26.3,29.79,SW,234,2.0,11.0,89,0.00,,OVC150,0.02,VWS V14.01,2013-02-23 05:20:00,
2013-02-22 23:25:00,29.0,26.2,29.79,South,180,0.0,10.0,89,0.00,,-RA,0.02,VWS V14.01,2013-02-23 05:25:00,
2013-02-22 23:30:00,29.0,26.2,29.79,WSW,247,3.0,15.0,89,0.00,,-RA,0.02,VWS V14.01,2013-02-23 05:30:00,
2013-02-22 23:35:00,28.9,26.1,29.79,West,270,1.0,9.0,89,0.00,,-RA,0.02,VWS V14.01,2013-02-23 05:35:00,
2013-02-22 23:40:00,28.9,26.1,29.79,SW,235,0.0,12.0,89,0.00,,-RA,0.02,VWS V14.01,2013-02-23 05:40:00,
2013-02-22 23:45:00,28.9,26.1,29.79,SW,234,2.0,11.0,89,0.00,,OVC150,0.02,VWS V14.01,2013-02-23 05:45:00,
2013-02-22 23:46:00,28.9,26.1,29.79,SW,232,2.0,9.0,89,0.00,,-RA,0.02,VWS V14.01,2013-02-23 05:46:00,
2013-02-22 23:50:00,28.9,26.1,29.79,WSW,254,3.0,9.0,89,0.00,,OVC150,0.02,VWS V14.01,2013-02-23 05:50:00,
2013-02-22 23:51:00,28.9,26.1,29.79,WSW,241,12.0,12.0,89,0.00,,-RA,0.02,VWS V14.01,2013-02-23 05:51:00,
2013-02-22 23:55:00,28.9,26.1,29.79,SW,229,3.0,13.0,89,0.00,,OVC150,0.02,VWS V14.01,2013-02-23 05:55:00,
2013-02-22 23:56:00,28.9,25.8,29.79,SW,232,5.0,13.0,88,0.00,,-RA,0.02,VWS V14.01,2013-02-23 05:56:00,